GW3585 Weather Reports


time (UTC)temp
C
wind
direction
speed
KPH
gust
KPH
rain 1hr
cm
rain 24hr
cm
rain mn
cm
humidity
%
barometer
mb
20260506222046 27 351 11.3 20.9 0.00 0.00 0.00 17 1015.0
20260506221549 27 5 8.0 24.1 0.00 0.00 0.00 17 1015.0
20260506221048 27 322 9.7 24.1 0.00 0.00 0.00 18 1015.1
20260506220548 27 338 3.2 20.9 0.00 0.00 0.00 18 1014.9
20260506220059 27 335 8.0 20.9 0.00 0.00 0.00 17 1015.2
20260506215548 27 337 11.3 20.9 0.00 0.00 0.00 17 1015.2
20260506215046 27 343 4.8 11.3 0.00 0.00 0.00 17 1015.2
20260506214552 27 315 4.8 19.3 0.00 0.00 0.00 17 1015.2
20260506214045 27 53 3.2 19.3 0.00 0.00 0.00 17 1015.2
20260506213544 27 8 9.7 19.3 0.00 0.00 0.00 18 1015.4
20260506213100 27 331 8.0 16.1 0.00 0.00 0.00 17 1015.2
20260506212544 27 346 3.2 16.1 0.00 0.00 0.00 18 1015.3
20260506212050 27 300 6.4 16.1 0.00 0.00 0.00 19 1015.3
20260506211555 27 332 6.4 16.1 0.00 0.00 0.00 19 1015.3
20260506211044 27 330 4.8 24.1 0.00 0.00 0.00 18 1015.3
20260506210548 26 342 9.7 24.1 0.00 0.00 0.00 19 1015.3
20260506210119 26 314 6.4 20.9 0.00 0.00 0.00 19 1015.4
20260506205547 27 326 8.0 20.9 0.00 0.00 0.00 19 1015.5
20260506205050 27 343 11.3 20.9 0.00 0.00 0.00 19 1015.3
20260506204558 27 342 4.8 14.5 0.00 0.00 0.00 19 1015.3
20260506204044 26 309 6.4 17.7 0.00 0.00 0.00 19 1015.3
20260506203548 26 324 4.8 17.7 0.00 0.00 0.00 20 1015.4
20260506203138 26 322 6.4 24.1 0.00 0.00 0.00 20 1015.4
20260506202545 26 292 8.0 24.1 0.00 0.00 0.00 20 1015.4
20260506202049 26 300 8.0 17.7 0.00 0.00 0.00 20 1015.4
20260506201558 26 343 6.4 17.7 0.00 0.00 0.00 21 1015.4
20260506201045 26 212 6.4 16.1 0.00 0.00 0.00 20 1015.3
20260506200544 26 327 9.7 16.1 0.00 0.00 0.00 20 1015.4
20260506200051 26 35 3.2 16.1 0.00 0.00 0.00 20 1015.4
20260506195548 26 317 6.4 17.7 0.00 0.00 0.00 21 1015.5
20260506195048 26 6 8.0 17.7 0.00 0.00 0.00 21 1015.4
20260506194549 26 288 3.2 19.3 0.00 0.00 0.00 21 1015.4
20260506194044 25 326 11.3 19.3 0.00 0.00 0.00 21 1015.7
20260506193544 25 309 4.8 19.3 0.00 0.00 0.00 21 1015.5
20260506193049 25 316 8.0 19.3 0.00 0.00 0.00 22 1015.5
20260506192545 25 1 9.7 17.7 0.00 0.00 0.00 22 1015.6
20260506192044 25 335 8.0 16.1 0.00 0.00 0.00 23 1015.4
20260506191553 25 9 8.0 16.1 0.00 0.00 0.00 23 1015.6
20260506191044 25 334 6.4 14.5 0.00 0.00 0.00 23 1015.7
20260506190545 25 24 8.0 14.5 0.00 0.00 0.00 24 1015.6
20260506190054 24 338 6.4 14.5 0.00 0.00 0.00 24 1015.6
20260506185548 24 2 6.4 14.5 0.00 0.00 0.00 23 1015.7
20260506185044 24 292 4.8 14.5 0.00 0.00 0.00 25 1015.8
20260506184559 24 12 3.2 11.3 0.00 0.00 0.00 24 1015.7
20260506184052 24 321 1.6 9.7 0.00 0.00 0.00 25 1015.8
20260506183548 23 316 3.2 16.1 0.00 0.00 0.00 25 1015.7
20260506183049 23 278 4.8 16.1 0.00 0.00 0.00 25 1015.7
20260506182548 24 292 3.2 14.5 0.00 0.00 0.00 24 1015.7
20260506182048 24 342 6.4 12.9 0.00 0.00 0.00 25 1015.8
20260506181559 24 293 3.2 11.3 0.00 0.00 0.00 24 1015.8
20260506181045 24 311 4.8 12.9 0.00 0.00 0.00 25 1015.9
20260506180548 24 172 6.4 12.9 0.00 0.00 0.00 25 1015.8
20260506180056 24 232 6.4 16.1 0.00 0.00 0.00 25 1015.9
20260506175548 23 23 4.8 16.1 0.00 0.00 0.00 26 1015.8
20260506175047 23 330 6.4 12.9 0.00 0.00 0.00 25 1016.0
20260506174604 23 307 3.2 12.9 0.00 0.00 0.00 26 1016.0
20260506174052 23 21 4.8 12.9 0.00 0.00 0.00 26 1016.1
20260506173548 23 328 3.2 11.3 0.00 0.00 0.00 27 1016.0
20260506173056 23 7 3.2 17.7 0.00 0.00 0.00 27 1016.0
20260506172545 22 333 4.8 17.7 0.00 0.00 0.00 27 1016.0
20260506172048 22 309 8.0 16.1 0.00 0.00 0.00 27 1016.1
20260506171557 22 282 6.4 14.5 0.00 0.00 0.00 27 1016.0
20260506171048 22 309 4.8 14.5 0.00 0.00 0.00 27 1016.0
20260506170544 22 5 6.4 14.5 0.00 0.00 0.00 27 1016.0
20260506170051 21 24 4.8 12.9 0.00 0.00 0.00 28 1016.1
20260506165545 21 33 4.8 12.9 0.00 0.00 0.00 28 1016.1
20260506165045 21 238 4.8 11.3 0.00 0.00 0.00 28 1016.1
20260506164554 21 46 4.8 11.3 0.00 0.00 0.00 29 1016.0
20260506164044 21 255 3.2 11.3 0.00 0.00 0.00 29 1016.0
20260506163544 21 323 4.8 12.9 0.00 0.00 0.00 28 1016.1
20260506163107 21 323 6.4 12.9 0.00 0.00 0.00 29 1016.1
20260506162548 21 338 4.8 11.3 0.00 0.00 0.00 28 1016.0
20260506162044 21 344 3.2 11.3 0.00 0.00 0.00 28 1016.1
20260506161553 20 342 4.8 11.3 0.00 0.00 0.00 28 1016.1
20260506161048 20 332 4.8 9.7 0.00 0.00 0.00 27 1016.2
20260506160548 20 278 3.2 8.0 0.00 0.00 0.00 28 1016.1
20260506160055 20 355 3.2 9.7 0.00 0.00 0.00 27 1016.2
20260506155548 20 279 1.6 9.7 0.00 0.00 0.00 28 1016.2
20260506155048 20 294 3.2 8.0 0.00 0.00 0.00 28 1016.2
20260506154555 20 41 1.6 6.4 0.00 0.00 0.00 28 1016.3
20260506154050 20 332 3.2 8.0 0.00 0.00 0.00 29 1016.2
20260506153547 19 276 3.2 8.0 0.00 0.00 0.00 28 1016.3
20260506153112 19 282 3.2 6.4 0.00 0.00 0.00 28 1016.2
20260506152547 19 264 0.0 6.4 0.00 0.00 0.00 28 1016.3
20260506152047 19 321 1.6 6.4 0.00 0.00 0.00 28 1016.3
20260506151556 19 27 0.0 4.8 0.00 0.00 0.00 29 1016.3
20260506151047 19 243 0.0 4.8 0.00 0.00 0.00 30 1016.3
20260506150547 18 169 1.6 6.4 0.00 0.00 0.00 30 1016.3
20260506150052 18 280 1.6 6.4 0.00 0.00 0.00 30 1016.4
20260506145551 18 276 1.6 4.8 0.00 0.00 0.00 31 1016.3
20260506145047 17 0 1.6 8.0 0.00 0.00 0.00 30 1016.2
20260506144555 17 350 3.2 8.0 0.00 0.00 0.00 31 1016.2
20260506144048 17 287 1.6 6.4 0.00 0.00 0.00 32 1016.1
20260506143548 16 0 0.0 3.2 0.00 0.00 0.00 34 1016.0
20260506143050 16 317 0.0 3.2 0.00 0.00 0.00 35 1016.0
20260506142548 16 353 0.0 3.2 0.00 0.00 0.00 35 1015.8
20260506142048 15 295 0.0 3.2 0.00 0.00 0.00 36 1015.8
20260506141551 15 338 0.0 4.8 0.00 0.00 0.00 37 1015.8
20260506141048 14 316 0.0 4.8 0.00 0.00 0.00 38 1015.7
20260506140549 13 325 1.6 4.8 0.00 0.00 0.00 38 1015.6
20260506140053 13 336 1.6 8.0 0.00 0.00 0.00 39 1015.5
20260506135548 13 314 1.6 9.7 0.00 0.00 0.00 39 1015.5
20260506135048 13 341 4.8 9.7 0.00 0.00 0.00 40 1015.4
20260506134554 13 311 3.2 6.4 0.00 0.00 0.00 39 1015.3
20260506134048 12 353 1.6 4.8 0.00 0.00 0.00 40 1015.3
20260506133547 12 315 1.6 4.8 0.00 0.00 0.00 40 1015.2
20260506133057 12 344 1.6 4.8 0.00 0.00 0.00 40 1015.0
20260506132550 12 329 1.6 4.8 0.00 0.00 0.00 41 1015.0
20260506132049 12 343 3.2 4.8 0.00 0.00 0.00 42 1014.9
20260506131551 12 326 1.6 3.2 0.00 0.00 0.00 42 1014.8
20260506131048 12 346 1.6 4.8 0.00 0.00 0.00 42 1014.7
20260506130554 11 332 1.6 4.8 0.00 0.00 0.00 42 1014.7
20260506130056 11 310 0.0 3.2 0.00 0.00 0.00 41 1014.6
20260506125549 11 298 1.6 3.2 0.00 0.00 0.00 41 1014.5
20260506125048 12 313 0.0 4.8 0.00 0.00 0.00 41 1014.4
20260506124558 12 314 1.6 4.8 0.00 0.00 0.00 41 1014.5
20260506124048 12 335 0.0 6.4 0.00 0.00 0.00 41 1014.4
20260506123548 11 333 1.6 6.4 0.00 0.00 0.00 41 1014.3
20260506123104 12 321 0.0 6.4 0.00 0.00 0.00 41 1014.3
20260506122548 12 323 1.6 6.4 0.00 0.00 0.00 41 1014.1
20260506122048 12 303 1.6 4.8 0.00 0.00 0.00 41 1014.0
20260506121608 11 322 1.6 4.8 0.00 0.00 0.00 42 1014.0
20260506121048 11 317 1.6 4.8 0.00 0.00 0.00 43 1014.0
20260506120550 11 328 0.0 1.6 0.00 0.00 0.00 42 1013.9
20260506120058 12 0 0.0 1.6 0.00 0.00 0.00 42 1014.0
20260506115549 12 328 0.0 4.8 0.00 0.00 0.00 41 1014.0
20260506115049 12 330 0.0 4.8 0.00 0.00 0.00 41 1014.0
20260506114554 12 328 3.2 4.8 0.00 0.00 0.00 40 1014.0
20260506114048 12 319 1.6 4.8 0.00 0.00 0.00 40 1013.9
20260506113545 12 340 1.6 4.8 0.00 0.00 0.00 39 1013.8
20260506113054 12 289 1.6 4.8 0.00 0.00 0.00 38 1013.7
20260506112548 12 314 1.6 3.2 0.00 0.00 0.00 38 1013.6
20260506112048 13 335 0.0 4.8 0.00 0.00 0.00 37 1013.6
20260506111553 13 338 1.6 4.8 0.00 0.00 0.00 37 1013.4
20260506111050 13 316 1.6 4.8 0.00 0.00 0.00 37 1013.4
20260506110548 13 332 0.0 4.8 0.00 0.00 0.00 36 1013.4
20260506110104 13 350 0.0 4.8 0.00 0.00 0.00 36 1013.4
20260506105548 13 349 1.6 4.8 0.00 0.00 0.00 36 1013.2
20260506105049 14 282 0.0 4.8 0.00 0.00 0.00 36 1013.1
20260506104609 15 322 1.6 4.8 0.00 0.00 0.00 34 1013.1
20260506104048 15 309 1.6 4.8 0.00 0.00 0.00 34 1013.0
20260506103545 15 336 1.6 4.8 0.00 0.00 0.00 34 1013.1
20260506103101 15 303 0.0 6.4 0.00 0.00 0.00 33 1013.1
20260506102546 15 336 0.0 6.4 0.00 0.00 0.00 34 1013.0
20260506102048 14 328 0.0 4.8 0.00 0.00 0.00 34 1013.1
20260506101613 14 323 0.0 4.8 0.00 0.00 0.00 35 1013.1
20260506101048 15 339 1.6 4.8 0.00 0.00 0.00 34 1013.0
20260506100548 15 304 1.6 4.8 0.00 0.00 0.00 33 1013.0
20260506100052 15 335 1.6 3.2 0.00 0.00 0.00 32 1012.9
20260506095548 15 0 0.0 8.0 0.00 0.00 0.00 32 1012.9
20260506095048 16 326 1.6 8.0 0.00 0.00 0.00 32 1012.9
20260506094558 16 356 1.6 8.0 0.00 0.00 0.00 31 1012.9
20260506094047 16 360 3.2 8.0 0.00 0.00 0.00 30 1012.7
20260506093549 16 281 4.8 11.3 0.00 0.00 0.00 30 1012.7
20260506093102 16 317 4.8 11.3 0.00 0.00 0.00 30 1012.7
20260506092545 16 303 1.6 8.0 0.00 0.00 0.00 30 1012.8
20260506092050 16 313 1.6 8.0 0.00 0.00 0.00 30 1012.7
20260506091555 16 7 4.8 8.0 0.00 0.00 0.00 30 1012.7
20260506091045 16 347 1.6 12.9 0.00 0.00 0.00 30 1012.7
20260506090545 16 328 3.2 12.9 0.00 0.00 0.00 30 1012.7
20260506090110 16 336 4.8 9.7 0.00 0.00 0.00 30 1012.6
20260506085545 16 340 3.2 8.0 0.00 0.00 0.00 31 1012.5
20260506085045 16 330 1.6 8.0 0.00 0.00 0.00 30 1012.5
20260506084557 16 311 4.8 16.1 0.00 0.00 0.00 30 1012.5
20260506084045 16 335 4.8 16.1 0.00 0.00 0.00 30 1012.5
20260506083548 17 349 6.4 16.1 0.00 0.00 0.00 29 1012.4
20260506083052 17 335 4.8 12.9 0.00 0.00 0.00 29 1012.4
20260506082547 17 340 6.4 12.9 0.00 0.00 0.00 29 1012.3
20260506082048 16 8 4.8 9.7 0.00 0.00 0.00 30 1012.2
20260506081549 16 332 4.8 11.3 0.00 0.00 0.00 30 1012.3
20260506081052 16 352 4.8 16.1 0.00 0.00 0.00 30 1012.3
20260506080545 17 311 4.8 16.1 0.00 0.00 0.00 29 1012.2
20260506073050 17 4 4.8 12.9 0.00 0.00 0.00 27 1012.2
20260506072545 17 345 4.8 14.5 0.00 0.00 0.00 27 1012.2
20260506072047 18 290 4.8 14.5 0.00 0.00 0.00 27 1012.2
20260506071552 18 276 6.4 17.7 0.00 0.00 0.00 27 1012.2
20260506071048 18 300 8.0 17.7 0.00 0.00 0.00 27 1012.1
20260506070548 18 323 6.4 12.9 0.00 0.00 0.00 27 1012.1
20260506062047 17 324 1.6 3.2 0.00 0.00 0.00 27 1011.8
20260506061554 17 335 0.0 4.8 0.00 0.00 0.00 27 1011.8
20260506061048 17 314 0.0 4.8 0.00 0.00 0.00 26 1011.8
20260506060549 17 335 1.6 9.7 0.00 0.00 0.00 26 1011.8
20260506051047 18 245 3.2 8.0 0.00 0.00 0.00 23 1011.1
20260506050549 18 322 3.2 8.0 0.00 0.00 0.00 24 1011.1
20260506050112 18 272 3.2 6.4 0.00 0.00 0.00 24 1011.0
20260506045047 18 338 1.6 6.4 0.00 0.00 0.00 24 1011.0
20260506044553 18 6 1.6 8.0 0.00 0.00 0.00 23 1011.0
20260506044048 18 259 3.2 8.0 0.00 0.00 0.00 23 1010.9
20260506043547 18 15 3.2 6.4 0.00 0.00 0.00 23 1010.9
20260506043053 18 353 0.0 8.0 0.00 0.00 0.00 23 1010.8
20260506042547 18 339 1.6 8.0 0.00 0.00 0.00 23 1010.7
20260506042050 18 15 3.2 8.0 0.00 0.00 0.00 23 1010.6
20260506041601 18 281 3.2 6.4 0.00 0.00 0.00 23 1010.6
20260506041047 18 323 3.2 8.0 0.00 0.00 0.00 23 1010.6
20260506040547 18 311 3.2 8.0 0.00 0.00 0.00 23 1010.4
20260506040051 18 331 3.2 9.7 0.00 0.00 0.00 22 1010.4
20260506035547 18 13 3.2 9.7 0.00 0.00 0.00 22 1010.3
20260506035047 18 311 4.8 12.9 0.00 0.00 0.00 21 1010.2
20260506034552 18 335 3.2 12.9 0.00 0.00 0.00 21 1010.0
20260506034046 18 315 4.8 11.3 0.00 0.00 0.00 21 1010.0
20260506033548 18 2 4.8 11.3 0.00 0.00 0.00 21 1009.9
20260506033052 18 330 3.2 8.0 0.00 0.00 0.00 21 1009.9
20260506032548 18 226 3.2 8.0 0.00 0.00 0.00 21 1009.9
20260506032048 19 304 3.2 8.0 0.00 0.00 0.00 21 1009.8
20260506031549 19 333 3.2 9.7 0.00 0.00 0.00 21 1009.7
20260506031048 19 346 3.2 9.7 0.00 0.00 0.00 21 1009.6
20260506030548 19 266 3.2 9.7 0.00 0.00 0.00 21 1009.6
20260506030050 19 338 1.6 8.0 0.00 0.00 0.00 21 1009.5
20260506025548 19 333 3.2 11.3 0.00 0.00 0.00 21 1009.4
20260506025048 19 297 3.2 11.3 0.00 0.00 0.00 22 1009.4
20260506024605 19 283 4.8 11.3 0.00 0.00 0.00 21 1009.3
20260506024048 19 217 4.8 11.3 0.00 0.00 0.00 22 1009.2
20260506023549 20 250 4.8 11.3 0.00 0.00 0.00 21 1009.1
20260506023106 20 264 3.2 11.3 0.00 0.00 0.00 22 1009.0
20260506022548 20 288 3.2 14.5 0.00 0.00 0.00 22 1008.8
20260506022051 20 227 6.4 14.5 0.00 0.00 0.00 22 1008.8
20260506021552 20 264 6.4 14.5 0.00 0.00 0.00 22 1008.6
20260506021048 20 281 4.8 14.5 0.00 0.00 0.00 21 1008.6
20260506020547 20 349 3.2 14.5 0.00 0.00 0.00 21 1008.5
20260506020055 21 295 4.8 11.3 0.00 0.00 0.00 21 1008.4
20260506015548 21 282 3.2 17.7 0.00 0.00 0.00 21 1008.3
20260506015048 21 252 4.8 17.7 0.00 0.00 0.00 21 1008.4
20260506014554 21 271 4.8 17.7 0.00 0.00 0.00 20 1008.2
20260506014048 21 205 4.8 14.5 0.00 0.00 0.00 20 1008.2
20260506013549 21 226 6.4 14.5 0.00 0.00 0.00 20 1008.2
20260506013056 21 286 6.4 14.5 0.00 0.00 0.00 20 1008.3
20260506012550 22 208 6.4 14.5 0.00 0.00 0.00 19 1008.2
20260506012048 22 269 4.8 14.5 0.00 0.00 0.00 19 1008.2
20260506011552 22 238 6.4 16.1 0.00 0.00 0.00 19 1008.2
20260506011046 22 296 6.4 16.1 0.00 0.00 0.00 19 1008.1
20260506010546 22 290 6.4 16.1 0.00 0.00 0.00 18 1008.2
20260506010055 22 264 6.4 16.1 0.00 0.00 0.00 18 1008.0
20260506005545 22 155 4.8 16.1 0.00 0.00 0.00 19 1008.0
20260506005048 22 268 6.4 16.1 0.00 0.00 0.00 19 1008.0
20260506004559 22 328 6.4 16.1 0.00 0.00 0.00 19 1008.0
20260506004046 22 276 4.8 19.3 0.00 0.00 0.00 19 1008.1
20260506003547 22 293 3.2 19.3 0.00 0.00 0.00 20 1008.0
20260506003056 22 134 6.4 17.7 0.00 0.00 0.00 20 1008.0
20260506002547 22 205 6.4 17.7 0.00 0.00 0.00 19 1008.0
20260506002049 22 229 4.8 12.9 0.00 0.00 0.00 20 1007.9
20260506001600 22 191 4.8 12.9 0.00 0.00 0.00 19 1008.0
20260506001048 22 286 6.4 14.5 0.00 0.00 0.00 19 1008.0
20260506000548 23 114 4.8 14.5 0.00 0.00 0.00 19 1007.9
20260506000104 22 245 6.4 16.1 0.00 0.00 0.00 18 1007.9
20260505235546 23 229 4.8 16.1 0.00 0.00 0.00 19 1007.9
20260505235046 23 294 4.8 16.1 0.00 0.00 0.00 19 1007.8
20260505234559 23 136 6.4 16.1 0.00 0.00 0.00 19 1007.9
20260505234048 23 101 4.8 14.5 0.00 0.00 0.00 18 1007.8
20260505233548 23 173 4.8 17.7 0.00 0.00 0.00 19 1007.9
20260505233059 23 77 6.4 19.3 0.00 0.00 0.00 19 1008.0
20260505232547 23 311 4.8 19.3 0.00 0.00 0.00 19 1008.0
20260505232054 23 286 6.4 20.9 0.00 0.00 0.00 20 1008.1
20260505231553 23 333 6.4 20.9 0.00 0.00 0.00 20 1008.0
20260505231048 23 153 8.0 20.9 0.00 0.00 0.00 20 1008.0
20260505230551 23 115 6.4 16.1 0.00 0.00 0.00 20 1008.0
20260505230120 23 304 8.0 16.1 0.00 0.00 0.00 20 1008.0
20260505225545 23 223 6.4 17.7 0.00 0.00 0.00 20 1008.1
20260505225051 23 121 6.4 17.7 0.00 0.00 0.00 20 1008.0
20260505224558 23 267 6.4 19.3 0.00 0.00 0.00 20 1008.1
20260505224045 23 287 3.2 19.3 0.00 0.00 0.00 20 1008.2
20260505223547 23 186 8.0 19.3 0.00 0.00 0.00 19 1008.2
20260505223054 23 331 4.8 17.7 0.00 0.00 0.00 19 1008.2
20260505222547 24 235 4.8 14.5 0.00 0.00 0.00 20 1008.2